Location: Unspecified
(0.0000°N, 0.0000°E)
Time: 09:26:56
(UTC+00:00)

SICH 2 - Visible Passes

Search period start: 09 June 2026 00:00
Search period end: 19 June 2026 00:00
Orbit: 667 x 683 km, 97.8° (Epoch: 9 June)

Date Brightness Start Highest point End Pass type
(mag) Time Alt. Az. Time Alt. Az. Time Alt. Az.
9 Jun ? 03:55:16 10° NNE 03:59:44 56° ESE 04:00:06 54° ESE visible
10 Jun ? 04:29:32 10° N 04:33:54 47° WNW 04:34:43 42° WSW visible
11 Jun ? 03:27:33 10° NE 03:31:02 23° E 03:31:02 23° E visible
11 Jun ? 05:05:16 10° NW 05:08:05 16° WNW 05:09:21 15° W visible
12 Jun ? 04:00:46 10° NNE 04:05:17 69° ESE 04:05:39 65° SE visible
13 Jun ? 04:35:14 10° N 04:39:28 39° WNW 04:40:16 35° WSW visible
14 Jun ? 03:32:48 10° NE 03:36:34 27° E 03:36:34 27° E visible
14 Jun ? 05:11:26 10° NW 05:13:37 13° WNW 05:14:52 12° W visible
15 Jun ? 04:06:17 10° NNE 04:10:50 83° ESE 04:11:11 75° SSE visible
16 Jun ? 03:06:40 10° E 03:07:29 11° E 03:07:29 11° E visible
16 Jun ? 04:40:57 10° NNW 04:45:00 32° WNW 04:45:47 30° W visible
17 Jun ? 03:38:07 10° NE 03:42:05 33° E 03:42:05 33° E visible
17 Jun ? 05:17:57 10° WNW 05:19:09 11° WNW 05:20:22 10° W visible
18 Jun ? 04:11:48 10° N 04:16:22 81° WNW 04:16:41 75° SW visible
